Location: Landeleau
(48.2273°N, 3.7285°W)
Time: 21:42:20
(UTC+00:00)

H-2A R/B - Pass Details

Date: 30 March 2020
Orbit: 734 x 836 km, 98.2° (Epoch: 26 May)

Event Time Altitude Azimuth Distance (km) Brightness Sun altitude
Rises 20:07:58 0° 179° (S) 3,337 5.1 -14.4°
Reaches altitude 10° 20:10:23 10° 184° (S) 2,396 4.4 -14.8°
Maximum altitude 20:15:33 52° 260° (W) 992 2.9 -15.6°
Drops below altitude 10° 20:20:37 10° 337° (NNW) 2,349 5.2 -16.3°
Sets 20:22:59 0° 342° (NNW) 3,266 6.0 -16.7°
